TimeCDT,TemperatureF,Dew PointF,Humidity,Sea Level PressureIn,VisibilityMPH,Wind Direction,Wind SpeedMPH,Gust SpeedMPH,PrecipitationIn,Events,Conditions,WindDirDegrees,DateUTC
12:15 AM,38.3,37.0,95,30.20,10.0,Calm,Calm,-,N/A,,Unknown,0,2012-10-08 05:15:00
12:35 AM,37.4,36.1,95,30.20,10.0,Calm,Calm,-,N/A,,Unknown,0,2012-10-08 05:35:00
12:55 AM,38.3,37.0,95,30.21,10.0,Calm,Calm,-,N/A,,Unknown,0,2012-10-08 05:55:00
1:15 AM,38.5,37.0,95,30.20,10.0,Calm,Calm,-,N/A,,Unknown,0,2012-10-08 06:15:00
1:35 AM,38.3,36.7,94,30.21,10.0,Calm,Calm,-,N/A,,Unknown,0,2012-10-08 06:35:00
1:55 AM,38.3,36.9,95,30.21,10.0,Calm,Calm,-,N/A,,Unknown,0,2012-10-08 06:55:00
2:15 AM,38.3,36.9,95,30.21,10.0,Calm,Calm,-,N/A,,Unknown,0,2012-10-08 07:15:00
2:35 AM,38.1,36.7,95,30.20,10.0,Calm,Calm,-,N/A,,Unknown,0,2012-10-08 07:35:00
2:55 AM,37.6,36.5,96,30.20,10.0,Calm,Calm,-,N/A,,Unknown,0,2012-10-08 07:55:00
3:15 AM,37.6,36.5,96,30.20,10.0,Calm,Calm,-,N/A,,Unknown,0,2012-10-08 08:15:00
3:35 AM,36.5,35.4,96,30.20,7.0,Calm,Calm,-,N/A,,Unknown,0,2012-10-08 08:35:00
3:55 AM,36.7,35.6,96,30.20,10.0,Calm,Calm,-,N/A,,Unknown,0,2012-10-08 08:55:00
4:15 AM,36.5,35.4,96,30.20,10.0,Calm,Calm,-,N/A,,Unknown,0,2012-10-08 09:15:00
4:35 AM,35.8,34.5,95,30.21,10.0,Calm,Calm,-,N/A,,Unknown,0,2012-10-08 09:35:00
4:55 AM,35.4,34.2,95,30.20,10.0,Calm,Calm,-,N/A,,Unknown,0,2012-10-08 09:55:00
5:15 AM,35.4,34.2,95,30.20,10.0,Calm,Calm,-,N/A,,Unknown,0,2012-10-08 10:15:00
5:35 AM,34.7,33.8,97,30.21,10.0,Calm,Calm,-,N/A,,Unknown,0,2012-10-08 10:35:00
5:55 AM,34.9,33.8,96,30.21,10.0,Calm,Calm,-,N/A,,Unknown,0,2012-10-08 10:55:00
6:15 AM,34.9,33.8,96,30.21,10.0,Calm,Calm,-,N/A,,Unknown,0,2012-10-08 11:15:00
6:35 AM,34.5,33.3,95,30.22,10.0,Calm,Calm,-,N/A,,Unknown,0,2012-10-08 11:35:00
6:55 AM,33.8,32.5,95,30.22,10.0,Calm,Calm,-,N/A,,Unknown,0,2012-10-08 11:55:00
7:15 AM,34.0,32.9,96,30.22,10.0,Calm,Calm,-,N/A,,Unknown,0,2012-10-08 12:15:00
7:35 AM,35.6,34.3,95,30.23,10.0,Calm,Calm,-,N/A,,Unknown,0,2012-10-08 12:35:00
7:55 AM,37.9,36.3,94,30.23,10.0,Calm,Calm,-,N/A,,Unknown,0,2012-10-08 12:55:00
8:15 AM,41.9,38.5,88,30.23,10.0,SSE,3.5,-,N/A,,Unknown,160,2012-10-08 13:15:00
8:35 AM,45.0,38.8,79,30.24,10.0,South,3.5,-,N/A,,Unknown,170,2012-10-08 13:35:00
8:55 AM,47.1,39.4,74,30.24,10.0,South,5.8,-,N/A,,Unknown,180,2012-10-08 13:55:00
9:15 AM,48.9,38.7,68,30.24,10.0,South,6.9,-,N/A,,Unknown,190,2012-10-08 14:15:00
9:35 AM,50.9,38.3,62,30.24,10.0,South,9.2,-,N/A,,Unknown,190,2012-10-08 14:35:00
9:55 AM,51.6,37.0,58,30.23,10.0,SSW,8.1,-,N/A,,Unknown,200,2012-10-08 14:55:00
10:15 AM,53.1,36.9,54,30.23,10.0,South,8.1,-,N/A,,Unknown,180,2012-10-08 15:15:00
10:35 AM,54.1,35.2,49,30.23,10.0,SSW,10.4,-,N/A,,Unknown,210,2012-10-08 15:35:00
10:55 AM,54.3,35.2,49,30.23,10.0,South,10.4,-,N/A,,Unknown,190,2012-10-08 15:55:00
11:15 AM,55.2,34.3,45,30.23,10.0,SSW,8.1,-,N/A,,Unknown,200,2012-10-08 16:15:00
11:35 AM,55.8,34.2,44,30.22,10.0,SW,9.2,-,N/A,,Unknown,230,2012-10-08 16:35:00
11:55 AM,56.5,34.3,43,30.21,10.0,SSW,9.2,-,N/A,,Scattered Clouds,210,2012-10-08 16:55:00
12:15 PM,56.3,32.9,41,30.21,10.0,SSW,6.9,-,N/A,,Unknown,200,2012-10-08 17:15:00
12:35 PM,57.0,33.3,41,30.20,10.0,South,8.1,-,N/A,,Unknown,190,2012-10-08 17:35:00
12:55 PM,57.6,33.6,41,30.19,10.0,SW,8.1,-,N/A,,Unknown,230,2012-10-08 17:55:00
1:15 PM,57.4,32.9,40,30.18,10.0,South,8.1,-,N/A,,Unknown,180,2012-10-08 18:15:00
1:35 PM,58.3,33.6,39,30.17,10.0,SW,9.2,-,N/A,,Unknown,220,2012-10-08 18:35:00
1:55 PM,58.8,34.5,40,30.16,10.0,South,8.1,-,N/A,,Clear,190,2012-10-08 18:55:00
2:15 PM,59.0,34.0,39,30.15,10.0,South,6.9,-,N/A,,Clear,190,2012-10-08 19:15:00
2:35 PM,59.4,34.3,39,30.14,10.0,South,6.9,16.1,N/A,,Unknown,190,2012-10-08 19:35:00
2:55 PM,59.7,35.1,40,30.14,10.0,South,6.9,-,N/A,,Unknown,190,2012-10-08 19:55:00
3:15 PM,59.4,33.8,38,30.13,10.0,South,10.4,-,N/A,,Unknown,180,2012-10-08 20:15:00
3:35 PM,59.7,34.0,38,30.12,10.0,SSW,11.5,-,N/A,,Clear,200,2012-10-08 20:35:00
3:55 PM,59.5,34.2,39,30.11,10.0,South,13.8,17.3,N/A,,Clear,190,2012-10-08 20:55:00
4:15 PM,59.4,34.3,39,30.11,10.0,South,9.2,-,N/A,,Clear,170,2012-10-08 21:15:00
4:35 PM,59.9,36.3,41,30.10,10.0,SSW,9.2,-,N/A,,Clear,210,2012-10-08 21:35:00
4:55 PM,59.0,34.7,40,30.10,10.0,SSW,8.1,-,N/A,,Clear,200,2012-10-08 21:55:00
5:15 PM,59.0,35.4,41,30.10,10.0,South,10.4,-,N/A,,Clear,180,2012-10-08 22:15:00
5:35 PM,58.3,35.2,42,30.10,10.0,South,6.9,-,N/A,,Clear,190,2012-10-08 22:35:00
5:55 PM,57.0,38.7,50,30.10,10.0,South,4.6,-,N/A,,Clear,180,2012-10-08 22:55:00
6:15 PM,54.5,38.5,55,30.10,10.0,South,5.8,-,N/A,,Clear,180,2012-10-08 23:15:00
6:35 PM,51.1,38.8,63,30.10,10.0,SSE,5.8,-,N/A,,Clear,160,2012-10-08 23:35:00
6:55 PM,49.1,39.2,69,30.10,10.0,SSE,4.6,-,N/A,,Clear,160,2012-10-08 23:55:00
7:15 PM,48.2,39.2,71,30.10,10.0,SSE,5.8,-,N/A,,Clear,160,2012-10-09 00:15:00
7:35 PM,46.6,38.7,74,30.10,10.0,SSE,5.8,-,N/A,,Clear,150,2012-10-09 00:35:00
7:55 PM,45.3,38.5,77,30.10,10.0,SSE,5.8,-,N/A,,Clear,160,2012-10-09 00:55:00
8:15 PM,45.9,38.3,75,30.10,10.0,SSE,4.6,-,N/A,,Clear,160,2012-10-09 01:15:00
8:35 PM,44.6,37.4,76,30.10,10.0,SSE,5.8,-,N/A,,Clear,160,2012-10-09 01:35:00
8:55 PM,46.0,37.9,73,30.10,10.0,SSE,5.8,-,N/A,,Clear,160,2012-10-09 01:55:00
9:15 PM,46.4,37.9,72,30.11,10.0,SSE,6.9,-,N/A,,Clear,160,2012-10-09 02:15:00
9:35 PM,46.4,37.9,72,30.11,10.0,SSE,6.9,-,N/A,,Clear,160,2012-10-09 02:35:00
9:55 PM,45.7,37.8,74,30.11,10.0,SSE,6.9,-,N/A,,Clear,160,2012-10-09 02:55:00
10:15 PM,46.4,37.8,72,30.11,10.0,South,8.1,-,N/A,,Clear,170,2012-10-09 03:15:00
10:35 PM,46.4,37.4,71,30.11,10.0,SSE,8.1,-,N/A,,Clear,160,2012-10-09 03:35:00
10:55 PM,46.4,37.8,72,30.11,10.0,SSE,8.1,-,N/A,,Clear,160,2012-10-09 03:55:00
11:15 PM,46.4,37.4,71,30.10,10.0,SSE,8.1,-,N/A,,Clear,160,2012-10-09 04:15:00
11:35 PM,45.9,37.8,73,30.10,10.0,SSE,8.1,-,N/A,,Clear,160,2012-10-09 04:35:00
11:55 PM,45.5,37.8,74,30.10,10.0,SSE,6.9,-,N/A,,Clear,160,2012-10-09 04:55:00